Time,TemperatureF,DewpointF,PressureIn,WindDirection,WindDirectionDegrees,WindSpeedMPH,WindSpeedGustMPH,Humidity,HourlyPrecipIn,Conditions,Clouds,dailyrainin,SoftwareType,DateUTC
2013-02-12 00:22:00,46.0,33.7,30.09,ENE,67,2.7,-999.0,62,-99.99,,,0.00,Acu-Link.com,2013-02-12 08:22:00,
2013-02-12 00:37:00,46.0,34.1,30.09,NE,45,3.2,-999.0,63,-99.99,,,0.00,Acu-Link.com,2013-02-12 08:37:00,
2013-02-12 00:52:00,45.5,34.8,30.10,NE,45,3.7,-999.0,66,-99.99,,,0.00,Acu-Link.com,2013-02-12 08:52:00,
2013-02-12 01:18:00,44.8,34.1,30.10,ENE,67,3.2,-999.0,66,-99.99,,,0.00,Acu-Link.com,2013-02-12 09:18:00,
2013-02-12 01:34:00,44.2,34.7,30.10,NE,45,5.3,-999.0,69,-99.99,,,0.00,Acu-Link.com,2013-02-12 09:34:00,
2013-02-12 01:49:00,44.2,34.7,30.10,East,90,3.2,-999.0,69,-99.99,,,0.00,Acu-Link.com,2013-02-12 09:49:00,
2013-02-12 02:04:00,43.5,34.7,30.10,ENE,67,5.3,-999.0,71,-99.99,,,0.00,Acu-Link.com,2013-02-12 10:04:00,
2013-02-12 02:20:00,43.2,35.5,30.11,NE,45,2.7,-999.0,74,-99.99,,,0.00,Acu-Link.com,2013-02-12 10:20:00,
2013-02-12 02:35:00,43.3,35.6,30.11,ENE,67,3.2,-999.0,74,-99.99,,,0.00,Acu-Link.com,2013-02-12 10:35:00,
2013-02-12 02:50:00,43.9,36.2,30.11,NE,45,3.7,-999.0,74,-99.99,,,0.00,Acu-Link.com,2013-02-12 10:50:00,
2013-02-12 03:05:00,44.2,37.1,30.11,NE,45,4.2,-999.0,76,-99.99,,,0.00,Acu-Link.com,2013-02-12 11:05:00,
2013-02-12 03:20:00,44.8,38.4,30.11,NE,45,4.2,-999.0,78,-99.99,,,0.00,Acu-Link.com,2013-02-12 11:20:00,
2013-02-12 03:35:00,44.8,38.0,30.10,ENE,67,3.7,-999.0,77,-99.99,,,0.00,Acu-Link.com,2013-02-12 11:35:00,
2013-02-12 03:50:00,44.8,37.7,30.11,NE,45,5.8,-999.0,76,-99.99,,,0.00,Acu-Link.com,2013-02-12 11:50:00,
2013-02-12 04:06:00,44.4,36.3,30.10,NNE,22,5.3,-999.0,73,-99.99,,,0.00,Acu-Link.com,2013-02-12 12:06:00,
2013-02-12 04:21:00,44.2,36.8,30.11,ESE,112,4.2,-999.0,75,-99.99,,,0.00,Acu-Link.com,2013-02-12 12:21:00,
2013-02-12 04:36:00,43.5,35.8,30.11,SSW,202,3.2,-999.0,74,-99.99,,,0.00,Acu-Link.com,2013-02-12 12:36:00,
2013-02-12 04:51:00,41.9,35.2,30.12,NE,45,4.7,-999.0,77,-99.99,,,0.00,Acu-Link.com,2013-02-12 12:51:00,
2013-02-12 05:06:00,41.9,35.2,30.12,NE,45,3.2,-999.0,77,-99.99,,,0.00,Acu-Link.com,2013-02-12 13:06:00,
2013-02-12 05:21:00,41.5,34.8,30.13,NNE,22,4.2,-999.0,77,-99.99,,,0.00,Acu-Link.com,2013-02-12 13:21:00,
2013-02-12 05:37:00,40.1,34.4,30.13,NE,45,6.8,-999.0,80,-99.99,,,0.00,Acu-Link.com,2013-02-12 13:37:00,
2013-02-12 05:52:00,39.2,34.2,30.14,SSE,157,3.7,-999.0,82,-99.99,,,0.00,Acu-Link.com,2013-02-12 13:52:00,
2013-02-12 06:07:00,39.4,34.4,30.15,ENE,67,3.7,-999.0,82,-99.99,,,0.00,Acu-Link.com,2013-02-12 14:07:00,
2013-02-12 06:22:00,38.8,33.8,30.16,WSW,247,2.7,-999.0,82,-99.99,,,0.00,Acu-Link.com,2013-02-12 14:22:00,
2013-02-12 06:38:00,38.8,33.2,30.16,WNW,292,1.1,-999.0,80,-99.99,,,0.00,Acu-Link.com,2013-02-12 14:38:00,
2013-02-12 06:53:00,39.7,33.7,30.17,NE,45,2.7,-999.0,79,-99.99,,,0.00,Acu-Link.com,2013-02-12 14:53:00,
2013-02-12 07:08:00,41.0,34.0,30.18,ESE,112,1.7,-999.0,76,-99.99,,,0.00,Acu-Link.com,2013-02-12 15:08:00,
2013-02-12 07:23:00,42.4,33.3,30.19,ENE,67,2.7,-999.0,70,-99.99,,,0.00,Acu-Link.com,2013-02-12 15:23:00,
2013-02-12 07:39:00,43.2,33.7,30.20,East,90,2.7,-999.0,69,-99.99,,,0.00,Acu-Link.com,2013-02-12 15:39:00,
2013-02-12 07:54:00,44.1,33.9,30.20,NE,45,2.2,-999.0,67,-99.99,,,0.00,Acu-Link.com,2013-02-12 15:54:00,
2013-02-12 08:09:00,45.1,34.4,30.21,NE,45,2.2,-999.0,66,-99.99,,,0.00,Acu-Link.com,2013-02-12 16:09:00,
2013-02-12 08:24:00,46.9,35.4,30.21,ENE,67,1.1,-999.0,64,-99.99,,,0.00,Acu-Link.com,2013-02-12 16:24:00,
2013-02-12 08:40:00,48.0,36.0,30.21,ENE,67,0.0,-999.0,63,-99.99,,,0.00,Acu-Link.com,2013-02-12 16:40:00,
2013-02-12 08:55:00,51.1,36.8,30.22,NE,45,0.0,-999.0,58,-99.99,,,0.00,Acu-Link.com,2013-02-12 16:55:00,
2013-02-12 09:10:00,56.3,38.4,30.22,ENE,67,2.2,-999.0,51,-99.99,,,0.00,Acu-Link.com,2013-02-12 17:10:00,
2013-02-12 09:25:00,57.4,38.9,30.22,ESE,112,2.2,-999.0,50,-99.99,,,0.00,Acu-Link.com,2013-02-12 17:25:00,
2013-02-12 09:40:00,58.1,38.5,30.22,SW,225,3.2,-999.0,48,-99.99,,,0.00,Acu-Link.com,2013-02-12 17:40:00,
2013-02-12 09:56:00,60.1,38.1,30.22,NE,45,3.2,-999.0,44,-99.99,,,0.00,Acu-Link.com,2013-02-12 17:56:00,
2013-02-12 10:11:00,61.2,38.5,30.22,West,270,1.1,-999.0,43,-99.99,,,0.00,Acu-Link.com,2013-02-12 18:11:00,
2013-02-12 10:26:00,64.2,39.4,30.23,NNE,22,2.7,-999.0,40,-99.99,,,0.00,Acu-Link.com,2013-02-12 18:26:00,
2013-02-12 10:41:00,64.8,38.6,30.23,NW,315,2.2,-999.0,38,-99.99,,,0.00,Acu-Link.com,2013-02-12 18:41:00,
2013-02-12 10:56:00,65.5,37.1,30.23,West,270,3.2,-999.0,35,-99.99,,,0.00,Acu-Link.com,2013-02-12 18:56:00,
2013-02-12 11:12:00,68.2,37.2,30.23,ENE,67,4.7,-999.0,32,-99.99,,,0.00,Acu-Link.com,2013-02-12 19:12:00,
2013-02-12 11:27:00,68.7,36.8,30.22,East,90,0.0,-999.0,31,-99.99,,,0.00,Acu-Link.com,2013-02-12 19:27:00,
2013-02-12 11:42:00,68.4,35.8,30.22,WSW,247,1.7,-999.0,30,-99.99,,,0.00,Acu-Link.com,2013-02-12 19:42:00,
2013-02-12 11:58:00,66.9,35.3,30.22,WSW,247,2.7,-999.0,31,-99.99,,,0.00,Acu-Link.com,2013-02-12 19:58:00,
2013-02-12 12:13:00,70.0,37.1,30.22,West,270,2.2,-999.0,30,-99.99,,,0.00,Acu-Link.com,2013-02-12 20:13:00,
2013-02-12 12:29:00,70.7,42.4,30.21,West,270,7.3,-999.0,36,-99.99,,,0.00,Acu-Link.com,2013-02-12 20:29:00,
2013-02-12 12:44:00,67.8,41.9,30.21,WNW,292,7.3,-999.0,39,-99.99,,,0.00,Acu-Link.com,2013-02-12 20:44:00,
2013-02-12 12:59:00,68.9,42.2,30.21,South,180,3.2,-999.0,38,-99.99,,,0.00,Acu-Link.com,2013-02-12 20:59:00,
2013-02-12 13:15:00,66.9,41.8,30.20,West,270,3.2,-999.0,40,-99.99,,,0.00,Acu-Link.com,2013-02-12 21:15:00,
2013-02-12 13:30:00,65.8,40.8,30.20,North,0,5.8,-999.0,40,-99.99,,,0.00,Acu-Link.com,2013-02-12 21:30:00,
2013-02-12 13:45:00,67.3,40.8,30.20,West,270,7.3,-999.0,38,-99.99,,,0.00,Acu-Link.com,2013-02-12 21:45:00,
2013-02-12 14:00:00,66.6,40.9,30.20,NNW,337,4.2,-999.0,39,-99.99,,,0.00,Acu-Link.com,2013-02-12 22:00:00,
2013-02-12 14:15:00,67.1,40.6,30.19,West,270,3.7,-999.0,38,-99.99,,,0.00,Acu-Link.com,2013-02-12 22:15:00,
2013-02-12 14:31:00,70.2,42.0,30.19,WSW,247,6.3,-999.0,36,-99.99,,,0.00,Acu-Link.com,2013-02-12 22:31:00,
2013-02-12 14:46:00,66.9,41.1,30.18,WSW,247,3.7,-999.0,39,-99.99,,,0.00,Acu-Link.com,2013-02-12 22:46:00,
2013-02-12 15:01:00,65.3,40.4,30.18,SW,225,4.2,-999.0,40,-99.99,,,0.00,Acu-Link.com,2013-02-12 23:01:00,
2013-02-12 15:17:00,63.9,39.7,30.18,SW,225,5.8,-999.0,41,-99.99,,,0.00,Acu-Link.com,2013-02-12 23:17:00,
2013-02-12 15:32:00,62.8,39.4,30.18,West,270,8.3,-999.0,42,-99.99,,,0.00,Acu-Link.com,2013-02-12 23:32:00,
2013-02-12 15:47:00,62.6,39.8,30.18,SSE,157,7.3,-999.0,43,-99.99,,,0.00,Acu-Link.com,2013-02-12 23:47:00,
2013-02-12 16:02:00,62.8,40.0,30.18,SW,225,6.3,-999.0,43,-99.99,,,0.00,Acu-Link.com,2013-02-13 00:02:00,
2013-02-12 16:17:00,64.2,40.0,30.17,West,270,5.3,-999.0,41,-99.99,,,0.00,Acu-Link.com,2013-02-13 00:17:00,
2013-02-12 16:33:00,61.7,39.0,30.17,SW,225,3.7,-999.0,43,-99.99,,,0.00,Acu-Link.com,2013-02-13 00:33:00,
2013-02-12 16:48:00,61.3,40.9,30.18,WSW,247,6.8,-999.0,47,-99.99,,,0.00,Acu-Link.com,2013-02-13 00:48:00,
2013-02-12 17:04:00,57.9,41.4,30.18,SSW,202,9.9,-999.0,54,-99.99,,,0.00,Acu-Link.com,2013-02-13 01:04:00,
2013-02-12 17:19:00,56.3,41.7,30.18,West,270,7.8,-999.0,58,-99.99,,,0.00,Acu-Link.com,2013-02-13 01:19:00,
2013-02-12 17:34:00,54.0,41.3,30.17,West,270,10.9,-999.0,62,-99.99,,,0.00,Acu-Link.com,2013-02-13 01:34:00,
2013-02-12 17:49:00,52.7,41.3,30.17,WSW,247,13.5,-999.0,65,-99.99,,,0.00,Acu-Link.com,2013-02-13 01:49:00,
2013-02-12 18:04:00,52.0,40.6,30.18,SSW,202,8.9,-999.0,65,-99.99,,,0.00,Acu-Link.com,2013-02-13 02:04:00,
2013-02-12 18:20:00,51.1,40.1,30.18,West,270,9.4,-999.0,66,-99.99,,,0.00,Acu-Link.com,2013-02-13 02:20:00,
2013-02-12 18:35:00,50.5,40.0,30.18,West,270,6.8,-999.0,67,-99.99,,,0.00,Acu-Link.com,2013-02-13 02:35:00,
2013-02-12 18:50:00,50.4,39.1,30.18,SW,225,0.0,-999.0,65,-99.99,,,0.00,Acu-Link.com,2013-02-13 02:50:00,
2013-02-12 19:05:00,50.0,38.7,30.18,South,180,1.7,-999.0,65,-99.99,,,0.00,Acu-Link.com,2013-02-13 03:05:00,
2013-02-12 19:21:00,49.1,38.6,30.18,ENE,67,1.1,-999.0,67,-99.99,,,0.00,Acu-Link.com,2013-02-13 03:21:00,
2013-02-12 19:36:00,48.9,37.3,30.18,NNE,22,0.0,-999.0,64,-99.99,,,0.00,Acu-Link.com,2013-02-13 03:36:00,
2013-02-12 19:51:00,49.1,39.7,30.18,NE,45,0.0,-999.0,70,-99.99,,,0.00,Acu-Link.com,2013-02-13 03:51:00,
2013-02-12 20:06:00,48.9,40.6,30.19,East,90,0.0,-999.0,73,-99.99,,,0.00,Acu-Link.com,2013-02-13 04:06:00,
2013-02-12 20:22:00,48.7,40.4,30.20,South,180,0.0,-999.0,73,-99.99,,,0.00,Acu-Link.com,2013-02-13 04:22:00,
2013-02-12 20:37:00,48.4,39.4,30.19,West,270,2.7,-999.0,71,-99.99,,,0.00,Acu-Link.com,2013-02-13 04:37:00,
2013-02-12 20:52:00,48.7,39.0,30.19,SW,225,2.7,-999.0,69,-99.99,,,0.00,Acu-Link.com,2013-02-13 04:52:00,
2013-02-12 21:08:00,48.7,38.2,30.19,West,270,2.7,-999.0,67,-99.99,,,0.00,Acu-Link.com,2013-02-13 05:08:00,
2013-02-12 21:23:00,48.9,37.3,30.19,West,270,3.7,-999.0,64,-99.99,,,0.00,Acu-Link.com,2013-02-13 05:23:00,
2013-02-12 21:38:00,48.9,36.9,30.19,West,270,4.7,-999.0,63,-99.99,,,0.00,Acu-Link.com,2013-02-13 05:38:00,
2013-02-12 21:53:00,48.2,37.4,30.19,West,270,3.2,-999.0,66,-99.99,,,0.00,Acu-Link.com,2013-02-13 05:53:00,
2013-02-12 22:09:00,47.8,38.1,30.19,WNW,292,6.8,-999.0,69,-99.99,,,0.00,Acu-Link.com,2013-02-13 06:09:00,
2013-02-12 22:24:00,47.3,38.0,30.20,West,270,4.7,-999.0,70,-99.99,,,0.00,Acu-Link.com,2013-02-13 06:24:00,
2013-02-12 22:39:00,47.1,39.2,30.20,West,270,3.7,-999.0,74,-99.99,,,0.00,Acu-Link.com,2013-02-13 06:39:00,
2013-02-12 22:55:00,47.1,39.2,30.19,West,270,5.3,-999.0,74,-99.99,,,0.00,Acu-Link.com,2013-02-13 06:55:00,
2013-02-12 23:10:00,47.1,39.6,30.20,WNW,292,5.3,-999.0,75,-99.99,,,0.00,Acu-Link.com,2013-02-13 07:10:00,
2013-02-12 23:25:00,47.8,39.6,30.20,West,270,6.3,-999.0,73,-99.99,,,0.00,Acu-Link.com,2013-02-13 07:25:00,
2013-02-12 23:41:00,46.8,39.0,30.20,WNW,292,3.7,-999.0,74,-99.99,,,0.00,Acu-Link.com,2013-02-13 07:41:00,
2013-02-12 23:56:00,45.5,39.0,30.20,WNW,292,3.2,-999.0,78,-99.99,,,0.00,Acu-Link.com,2013-02-13 07:56:00,